Regional Weather Roundup
Issued by NWS

Home | Current Version | Previous Version | Text Only | Print | Product List | Glossary On
Versions: 1 2 3 4 5 6 7 8 9 10 11 12 13 14 15 16 17 18 19 20 21 22 23 24 25 26 27 28 29 30 31 32 33 34 35 36 37 38 39 40 41 42 43 44 45 46 47 48 49 50
000
ASUS43 KDMX 170201
RWRIA

WEATHER ROUNDUP FOR IOWA
NATIONAL WEATHER SERVICE DES MOINES IA
800 PM CST TUE JAN 16 2018

NOTE: "FAIR" INDICATES FEW OR NO CLOUDS BELOW 12,000 FEET WITH NO
SIGNIFICANT WEATHER AND/OR OBSTRUCTIONS TO VISIBILITY.

* - THESE STATIONS ARE NOT NWS STATIONS...THUS NOT UNDER NWS
QUALITY CONTROL.  THEY ALSO DO NOT REPORT WEATHER SUCH
AS PRECIPITATION OR FOG.

IAZ001>003-012>014-020>022-031>034-043>046-170300-
   NORTHWEST IOWA

CITY           SKY/WX    TMP DP  RH WIND       PRES   REMARKS
CARROLL *      CLOUDY     0  -6  78 SW5       30.64F WCI -10
CHEROKEE *     CLOUDY    -3  -5  87 S3        30.63F
DENISON *      CLOUDY     0  -2  92 CALM      30.66F
LE MARS *      CLOUDY    -2  -4  92 CALM      30.64S
ORANGE CITY *  CLOUDY     1   0  92 CALM      30.59F
SHELDON *      CLOUDY    -2  -6  84 SW6       30.58F WCI -14
SIOUX CITY     CLOUDY     2  -2  83 CALM      30.66F
SPENCER        CLOUDY    -3  -7  82 SW5       30.60F WCI -13
STORM LAKE *   CLOUDY     1  -2  85 W12       30.59F WCI -15
$$

IAZ055>058-069>071-079>083-090>094-170300-
   SOUTHWEST IOWA

CITY           SKY/WX    TMP DP  RH WIND       PRES   REMARKS
ATLANTIC *     CLOUDY    -2  -6  84 CALM      30.67F
AUDUBON *      CLOUDY    -6  -9  84 CALM      30.65F
CLARINDA *     CLOUDY    -2  -4  92 CALM      30.72F
COUNCIL BLFS * CLOUDY     5   3  92 CALM      30.67S
CRESTON *      CLOUDY     0  -4  85 W7        30.66F WCI -13
HARLAN  *      CLOUDY    -2  -6  84 CALM      30.70F
LAMONI         CLOUDY     1  -4  79 W6        30.67R WCI -10
RED OAK *      CLOUDY    -2  -6  84 CALM      30.70S
SHENANDOAH *   CLOUDY     0  -4  85 CALM      30.72S
$$

IAZ047>049-059>061-072>074-084-170300-
   CENTRAL IOWA

CITY           SKY/WX    TMP DP  RH WIND       PRES   REMARKS
AMES           CLOUDY    -3  -6  87 W6        30.66F WCI -15
ANKENY *       CLOUDY     1  -2  85 CALM      30.69F
BOONE *        CLOUDY     0  -4  85 W7        30.63F WCI -13
CHARITON *     CLOUDY     1  -2  85 NW6       30.67S WCI -10
DES MOINES     CLOUDY     2  -3  80 W3        30.67S
GRINNELL*      CLOUDY     1  -3  83 W9        30.65F WCI -14
KNOXVILLE *    CLOUDY     0  -8  71 W7        30.66F WCI -13
MARSHALLTOWN   CLOUDY    -1  -5  82 W7        30.64S WCI -14
NEWTON *       CLOUDY     0  -6  78 W5        30.66F WCI -10
PELLA *        CLOUDY     1  -3  80 W6        30.69S WCI -10
$$

IAZ004>006-015-016-023>025-035-036-170300-
   NORTH CENTRAL IOWA

CITY           SKY/WX    TMP DP  RH WIND       PRES   REMARKS
ALGONA *       CLOUDY     0 N/A N/A W8        30.59F WCI -15
CLARION *      CLOUDY    -4  -8  84 SW6       30.62F WCI -16
ESTHERVILLE    CLOUDY    -3  -6  87 SW8       30.58F WCI -18
FORT DODGE *   CLOUDY    -2  -7  79 CALM      30.63
MASON CITY     CLOUDY    -6 -10  83 W6        30.61F WCI -19
FOREST CITY *    N/A     -4  -8  84 CALM      30.59F
WEBSTER CITY * CLOUDY    -2  -8  78 W9        30.62F WCI -18
IOWA FALLS *     N/A     -1  -5  82 W6        30.63F WCI -12
$$

IAZ007>011-017>019-026>030-037>042-050>054-066-170300-
   NORTHEAST IOWA

CITY           SKY/WX    TMP DP  RH WIND       PRES   REMARKS
CEDAR RAPIDS     N/A      1  -4  79 W8        30.62F WCI -13
CHARLES CITY * MOCLDY     0  -4  85 NW7       30.61S WCI -13
CLINTON *        N/A      4   0  83 W13       30.61S WCI -13
DECORAH *      CLOUDY     1  -2  85 W7        30.57S WCI -11
DUBUQUE          N/A      4  -1  80 W7        30.56F WCI  -8
MONTICELLO *     N/A      3  -2  78 W7        30.61F WCI  -9
OELWEIN *        N/A      1   1 100 W10       30.60F WCI -14
WATERLOO       MOCLDY     2  -2  83 W7        30.63F WCI -11
$$

IAZ064-065-067-068-078-170300-
   EAST CENTRAL IOWA

CITY           SKY/WX    TMP DP  RH WIND       PRES   REMARKS
DAVENPORT        N/A      7   1  76 W12       30.64R WCI  -8
IOWA CITY        N/A      4  -3  73 W5        30.67S WCI  -5
MT. PLEASANT * CLEAR      3   0  85 NW6       30.66F WCI  -8
MUSCATINE *      N/A      7   1  78 NW9G15    30.67F WCI  -7
QUAD CITIES      N/A      9   3  77 W10       30.63R WCI  -5
$$

IAZ062-063-075>077-085>089-095>099-170300-
   SOUTHEAST IOWA

CITY           SKY/WX    TMP DP  RH WIND       PRES   REMARKS
BURLINGTON     CLEAR      3  -3  76 W6        30.66R WCI  -8
FAIRFIELD *    CLEAR      3  -4  72 NW9       30.66S WCI -11
FORT MADISON * CLEAR      3   0  85 W7        30.67S WCI  -9
KEOKUK *       CLOUDY     5   0  78 NW7       30.68R WCI  -7
OSKALOOSA *      N/A      1  -3  84 W9        30.67F WCI -15
OTTUMWA        CLEAR      2  -3  80 W8        30.67S WCI -12
WASHINGTON *   CLEAR      1   0  92 W8        30.67F WCI -12
$$

ABBREVIATIONS USED IN REMARKS
   TC - TEMPERATURES IN CELSIUS
  WCI - WIND CHILL INDEX
   HX - HEAT INDEX
  VSB - VISIBILITY
$$





USA.gov is the U.S. government's official web portal to all federal, state and local government web resources and services.